Location: Marcé
(47.5801°N, 0.3280°W)
Time: 21:47:45
(UTC+01:00)

Transit 2A - Pass Details

Date: 08 December 2021
Orbit: 591 x 967 km, 66.7° (Epoch: 23 January)

Event Time Altitude Azimuth Distance (km) Brightness Sun altitude
Rises 07:45:17 0° 326° (NW) 3,655 - -8.4°
Exits shadow 07:46:23 - 328° (NNW) 3,262 8.7 -8.2°
Reaches altitude 10° 07:47:58 10° 332° (NNW) 2,715 8.4 -7.9°
Maximum altitude 07:54:10 49° 46° (NE) 1,228 7.2 -7.0°
Drops below altitude 10° 08:00:09 10° 121° (ESE) 2,623 10.6 -6.1°
Sets 08:02:42 0° 127° (SE) 3,521 11.8 -5.7°
